Tracking 17154 objects as of 1-August-2015
HD Live streaming from Space Station

CRRES DEB (CANISTER)

Track CRRES DEB (CANISTER) now!
CRRES DEB (CANISTER) is classified as:


NORAD ID: 21590
Int'l Code: 1990-065F
Perigee: 353.3 km
Apogee: 31,325.3 km
Inclination: 20.5 °
Period: 549.0 minutes
Semi major axis: 22210 km
RCS: 0.1267 m2 (medium)
Launch date: July 25, 1990
Source: United States (US)

Note: This is SATELLITE DEBRIS
Your satellite tracking list
Your tracking list is empty





NASA's NSSDC Master Catalog

Two Line Element Set (TLE):
1 21590U 90065F   15209.52798565  .00000317  00000-0  22605-3 0  9990
2 21590 020.5203 004.5106 6972431 229.6346 045.2521 02.62283059215320

Source of the keplerian elements: AFSPC

N2YO: 216